Location: Kuppenheim
(48.8299°N, 8.2568°E)
Time: 10:39:05
(UTC+00:00)

NOSS 2-3 (E) - Pass Details

Date: 20 June 2021
Orbit: 555 x 1655 km, 63.4° (Epoch: 23 July)

Event Time Altitude Azimuth Distance (km) Brightness Sun altitude
Exits shadow 00:42:31 17° 247° (WSW) 1,541 5.2 -15.9°
Maximum altitude 00:45:39 52° 320° (NW) 810 4.3 -15.7°
Drops below altitude 10° 00:50:38 10° 37° (NE) 2,302 7.7 -15.4°
Sets 00:53:24 0° 42° (NE) 3,399 8.7 -15.3°
